Regional Weather Roundup
Issued by NWS State College, PA

Home | Current Version | Previous Version | Text Only | Print | Product List | Glossary On
Versions: 1 2 3 4 5 6 7 8 9 10 11 12 13 14 15 16 17 18 19 20 21 22 23 24 25 26 27 28 29 30 31 32 33 34 35 36 37 38 39 40 41 42 43 44 45 46 47 48 49 50
000
ASUS41 KCTP 272010
RWRCTP

REGIONAL WEATHER ROUNDUP
NATIONAL WEATHER SERVICE STATE COLLEGE PA
400 PM EDT MON APR 27 2015

Note: "fair" indicates few or no clouds below 12,000 feet with no
significant weather and/or obstructions to visibility.

* = STATION THAT DOES NOT REPORT PRECIPITATION /E.G. RAIN...SNOW...ETC/
    THUNDER OR FOG.

PAZ002>004-007>009-013>016-020>023-029>032-272100-
WESTERN PENNSYLVANIA

CITY           SKY/WX    TMP DP  RH WIND       PRES   REMARKS
ERIE           CLOUDY    43  35  73 W12       29.95R
MEADVILLE      LGT RAIN  40  34  79 N10       29.92S
FRANKLIN*      CLOUDY    41  34  75 NW9G17    29.91S
NEW CASTLE     CLOUDY    43  36  76 NW13G20   29.94F
BEAVER COUNTY  CLOUDY    43  36  75 NW13G24   29.92S
BUTLER*        CLOUDY    43  36  75 NW9G17    29.92S
PITTSBURGH INT CLOUDY    45  36  70 NW17      29.91S
PITTSBURGH     CLOUDY    45  33  63 NW17G28   29.88S
INDIANA*       CLOUDY    46  37  71 NW9G20    29.88S
LATROBE        LGT RAIN  45  39  81 NW12      29.89F
WASHINGTON CO* CLOUDY    45  34  65 NW13G23   29.92S
$$

PAZ004>006-010>012-017>019-024>028-033>037-041-042-045-046-049>053-272100-
CENTRAL PENNSYLVANIA

CITY           SKY/WX    TMP DP  RH WIND       PRES   REMARKS
BRADFORD       CLOUDY    43  36  76 NW17      29.83S
DUBOIS         CLOUDY    48  35  60 NW14      29.83S
CLEARFIELD     CLOUDY    47  40  76 NW12      29.82S
JOHNSTOWN      PTSUNNY   47  35  63 W16       29.80F
ALTOONA        PTSUNNY   50  37  61 W13       29.81S
STATE COLLEGE  CLOUDY    48  39  71 NW14G23   29.79S
WILLIAMSPORT   CLOUDY    53  33  46 NW10G17   29.77S
SELINSGROVE    CLOUDY    54  32  43 NW9       29.77F
FT INDIANTOWN  CLOUDY    56  31  38 NW8G20    29.74F
CAPITAL CITY   CLOUDY    56  29  35 N10       29.76F
HARRISBURG     CLOUDY    56  29  35 NW14      29.75S
YORK           CLOUDY    56  32  40 N13       29.76S
$$

PAZ038>040-043-044-047-048-054-055-060>062-067>071-272100-
EASTERN PENNSYLVANIA

CITY           SKY/WX    TMP DP  RH WIND       PRES   REMARKS
SCRANTON       CLOUDY    52  33  48 NW18      29.72F
MOUNT POCONO   CLOUDY    48  32  53 NW14G23   29.70F
ALLENTOWN      CLOUDY    55  34  45 N16G22    29.72S
QUAKERTOWN*    CLOUDY    55  32  41 NW10G17   29.71F
READING        CLOUDY    55  31  39 NW13      29.72F
LANCASTER      CLOUDY    54  32  43 NW16G23   29.73F
COATESVILLE    CLOUDY    55  32  41 NW13      29.73F
POTTSTOWN      CLOUDY    54  32  43 NW10      29.73F
BLUE BELL      MOSUNNY   57  34  41 N8        29.70F
DOYLESTOWN     CLOUDY    56  32  40 NW10G22   29.69F
WILLOW GROVE   NOT AVBL
NORTH PHILA    CLOUDY    59  29  31 NW17G23   29.71F
PHILADELPHIA   CLOUDY    59  30  33 NW16G23   29.71F
$$



USA.gov is the U.S. government's official web portal to all federal, state and local government web resources and services.